Year,Month,Day,Hour,Minute,Value (Times are PST for temperature in C)
2016,09,21,00,00,10.60
2016,09,21,00,01,10.60
2016,09,21,00,02,10.60
2016,09,21,00,03,10.50
2016,09,21,00,04,10.50
2016,09,21,00,05,10.50
2016,09,21,00,06,10.40
2016,09,21,00,07,10.40
2016,09,21,00,08,10.40
2016,09,21,00,09,10.40
2016,09,21,00,10,10.40
2016,09,21,00,11,10.40
2016,09,21,00,12,10.40
2016,09,21,00,13,10.30
2016,09,21,00,14,10.30
2016,09,21,00,15,10.30
2016,09,21,00,16,10.30
2016,09,21,00,17,10.30
2016,09,21,00,18,10.30
2016,09,21,00,19,10.30
2016,09,21,00,20,10.30
2016,09,21,00,21,10.20
2016,09,21,00,22,10.20
2016,09,21,00,23,10.20
2016,09,21,00,24,10.20
2016,09,21,00,25,10.20
2016,09,21,00,26,10.20
2016,09,21,00,27,10.20
2016,09,21,00,28,10.20
2016,09,21,00,29,10.20
2016,09,21,00,30,10.20
2016,09,21,00,31,10.20
2016,09,21,00,32,10.20
2016,09,21,00,33,10.20
2016,09,21,00,34,10.10
2016,09,21,00,35,10.10
2016,09,21,00,36,10.10
2016,09,21,00,37,10.10
2016,09,21,00,38,10.10
2016,09,21,00,39,10.20
2016,09,21,00,40,10.20
2016,09,21,00,41,10.20
2016,09,21,00,42,10.20
2016,09,21,00,43,10.20
2016,09,21,00,44,10.10
2016,09,21,00,45,10.10
2016,09,21,00,46,10.00
2016,09,21,00,47,9.90
2016,09,21,00,48,9.90
2016,09,21,00,49,9.80
2016,09,21,00,50,9.80
2016,09,21,00,51,9.80
2016,09,21,00,52,9.80
2016,09,21,00,53,9.70
2016,09,21,00,54,9.70
2016,09,21,00,55,9.70
2016,09,21,00,56,9.70
2016,09,21,00,57,9.70
2016,09,21,00,58,9.70
2016,09,21,00,59,9.70
2016,09,21,01,00,9.70
2016,09,21,01,01,9.70
2016,09,21,01,02,9.70
2016,09,21,01,03,9.70
2016,09,21,01,04,9.70
2016,09,21,01,05,9.70
2016,09,21,01,06,9.80
2016,09,21,01,07,9.80
2016,09,21,01,08,9.80
2016,09,21,01,09,9.80
2016,09,21,01,10,9.90
2016,09,21,01,11,9.90
2016,09,21,01,12,9.90
2016,09,21,01,13,9.90
2016,09,21,01,14,9.90
2016,09,21,01,15,9.90
2016,09,21,01,16,9.90
2016,09,21,01,17,9.90
2016,09,21,01,18,9.90
2016,09,21,01,19,9.80
2016,09,21,01,20,9.80
2016,09,21,01,21,9.80
2016,09,21,01,22,9.80
2016,09,21,01,23,9.70
2016,09,21,01,24,9.70
2016,09,21,01,25,9.70
2016,09,21,01,26,9.70
2016,09,21,01,27,9.70
2016,09,21,01,28,9.60
2016,09,21,01,29,9.60
2016,09,21,01,30,9.60
2016,09,21,01,31,9.60
2016,09,21,01,32,9.60
2016,09,21,01,33,9.60
2016,09,21,01,34,9.60
2016,09,21,01,35,9.60
2016,09,21,01,36,9.60
2016,09,21,01,37,9.60
2016,09,21,01,38,9.60
2016,09,21,01,39,9.70
2016,09,21,01,40,9.70
2016,09,21,01,41,9.70
2016,09,21,01,42,9.70
2016,09,21,01,43,9.80
2016,09,21,01,44,9.80
2016,09,21,01,45,9.90
2016,09,21,01,46,9.90
2016,09,21,01,47,10.00
2016,09,21,01,48,10.00
2016,09,21,01,49,10.10
2016,09,21,01,50,10.10
2016,09,21,01,51,10.20
2016,09,21,01,52,10.30
2016,09,21,01,53,10.40
2016,09,21,01,54,10.40
2016,09,21,01,55,10.50
2016,09,21,01,56,10.50
2016,09,21,01,57,10.50
2016,09,21,01,58,10.50
2016,09,21,01,59,10.50
2016,09,21,02,00,10.50
2016,09,21,02,01,10.40
2016,09,21,02,02,10.40
2016,09,21,02,03,10.40
2016,09,21,02,04,10.30
2016,09,21,02,05,10.30
2016,09,21,02,06,10.30
2016,09,21,02,07,10.30
2016,09,21,02,08,10.30
2016,09,21,02,09,10.30
2016,09,21,02,10,10.40
2016,09,21,02,11,10.40
2016,09,21,02,12,10.40
2016,09,21,02,13,10.40
2016,09,21,02,14,10.40
2016,09,21,02,15,10.40
2016,09,21,02,16,10.40
2016,09,21,02,17,10.40
2016,09,21,02,18,10.40
2016,09,21,02,19,10.40
2016,09,21,02,20,10.40
2016,09,21,02,21,10.40
2016,09,21,02,22,10.30
2016,09,21,02,23,10.30
2016,09,21,02,24,10.30
2016,09,21,02,25,10.30
2016,09,21,02,26,10.20
2016,09,21,02,27,10.20
2016,09,21,02,28,10.10
2016,09,21,02,29,10.10
2016,09,21,02,30,10.00
2016,09,21,02,31,10.00
2016,09,21,02,32,10.00
2016,09,21,02,33,10.00
2016,09,21,02,34,10.00
2016,09,21,02,35,10.00
2016,09,21,02,36,10.00
2016,09,21,02,37,10.00
2016,09,21,02,38,10.10
2016,09,21,02,39,10.10
2016,09,21,02,40,10.10
2016,09,21,02,41,10.10
2016,09,21,02,42,10.10
2016,09,21,02,43,10.10
2016,09,21,02,44,10.00
2016,09,21,02,45,10.00
2016,09,21,02,46,10.00
2016,09,21,02,47,9.90
2016,09,21,02,48,9.90
2016,09,21,02,49,9.90
2016,09,21,02,50,9.90
2016,09,21,02,51,9.90
2016,09,21,02,52,9.80
2016,09,21,02,53,9.80
2016,09,21,02,54,9.70
2016,09,21,02,55,9.70
2016,09,21,02,56,9.70
2016,09,21,02,57,9.60
2016,09,21,02,58,9.60
2016,09,21,02,59,9.60
2016,09,21,03,00,9.60
2016,09,21,03,01,9.60
2016,09,21,03,02,9.60
2016,09,21,03,03,9.60
2016,09,21,03,04,9.60
2016,09,21,03,05,9.60
2016,09,21,03,06,9.60
2016,09,21,03,07,9.60
2016,09,21,03,08,9.50
2016,09,21,03,09,9.50
2016,09,21,03,10,9.50
2016,09,21,03,11,9.40
2016,09,21,03,12,9.30
2016,09,21,03,13,9.30
2016,09,21,03,14,9.30
2016,09,21,03,15,9.30
2016,09,21,03,16,9.30
2016,09,21,03,17,9.30
2016,09,21,03,18,9.30
2016,09,21,03,19,9.20
2016,09,21,03,20,9.20
2016,09,21,03,21,9.20
2016,09,21,03,22,9.20
2016,09,21,03,23,9.20
2016,09,21,03,24,9.20
2016,09,21,03,25,9.20
2016,09,21,03,26,9.10
2016,09,21,03,27,9.10
2016,09,21,03,28,9.10
2016,09,21,03,29,9.00
2016,09,21,03,30,9.00
2016,09,21,03,31,8.90
2016,09,21,03,32,8.90
2016,09,21,03,33,8.90
2016,09,21,03,34,8.80
2016,09,21,03,35,8.80
2016,09,21,03,36,8.80
2016,09,21,03,37,8.80
2016,09,21,03,38,8.80
2016,09,21,03,39,8.80
2016,09,21,03,40,8.70
2016,09,21,03,41,8.70
2016,09,21,03,42,8.70
2016,09,21,03,43,8.70
2016,09,21,03,44,8.70
2016,09,21,03,45,8.60
2016,09,21,03,46,8.60
2016,09,21,03,47,8.60
2016,09,21,03,48,8.60
2016,09,21,03,49,8.60
2016,09,21,03,50,8.50
2016,09,21,03,51,8.50
2016,09,21,03,52,8.50
2016,09,21,03,53,8.40
2016,09,21,03,54,8.40
2016,09,21,03,55,8.40
2016,09,21,03,56,8.40
2016,09,21,03,57,8.40
2016,09,21,03,58,8.30
2016,09,21,03,59,8.30
2016,09,21,04,00,8.30
2016,09,21,04,01,8.20
2016,09,21,04,02,8.20
2016,09,21,04,03,8.20
2016,09,21,04,04,8.20
2016,09,21,04,05,8.20
2016,09,21,04,06,8.20
2016,09,21,04,07,8.20
2016,09,21,04,08,8.10
2016,09,21,04,09,8.10
2016,09,21,04,10,8.10
2016,09,21,04,11,8.10
2016,09,21,04,12,8.10
2016,09,21,04,13,8.10
2016,09,21,04,14,8.10
2016,09,21,04,15,8.00
2016,09,21,04,16,8.00
2016,09,21,04,17,8.00
2016,09,21,04,18,7.90
2016,09,21,04,19,7.90
2016,09,21,04,20,7.90
2016,09,21,04,21,7.90
2016,09,21,04,22,7.90
2016,09,21,04,23,7.90
2016,09,21,04,24,7.80
2016,09,21,04,25,7.80
2016,09,21,04,26,7.80
2016,09,21,04,27,7.80
2016,09,21,04,28,7.80
2016,09,21,04,29,7.80
2016,09,21,04,30,7.80
2016,09,21,04,31,7.80
2016,09,21,04,32,7.80
2016,09,21,04,33,7.70
2016,09,21,04,34,7.70
2016,09,21,04,35,7.70
2016,09,21,04,36,7.70
2016,09,21,04,37,7.60
2016,09,21,04,38,7.60
2016,09,21,04,39,7.60
2016,09,21,04,40,7.60
2016,09,21,04,41,7.60
2016,09,21,04,42,7.60
2016,09,21,04,43,7.60
2016,09,21,04,44,7.60
2016,09,21,04,45,7.60
2016,09,21,04,46,7.60
2016,09,21,04,47,7.60
2016,09,21,04,48,7.60
2016,09,21,04,49,7.60
2016,09,21,04,50,7.70
2016,09,21,04,51,7.70
2016,09,21,04,52,7.70
2016,09,21,04,53,7.70
2016,09,21,04,54,7.70
2016,09,21,04,55,7.70
2016,09,21,04,56,7.70
2016,09,21,04,57,7.70
2016,09,21,04,58,7.70
2016,09,21,04,59,7.70
2016,09,21,05,00,7.70
2016,09,21,05,01,7.70
2016,09,21,05,02,7.70
2016,09,21,05,03,7.60
2016,09,21,05,04,7.60
2016,09,21,05,05,7.60
2016,09,21,05,06,7.60
2016,09,21,05,07,7.60
2016,09,21,05,08,7.50
2016,09,21,05,09,7.50
2016,09,21,05,10,7.50
2016,09,21,05,11,7.40
2016,09,21,05,12,7.40
2016,09,21,05,13,7.40
2016,09,21,05,14,7.40
2016,09,21,05,15,7.40
2016,09,21,05,16,7.30
2016,09,21,05,17,7.30
2016,09,21,05,18,7.30
2016,09,21,05,19,7.30
2016,09,21,05,20,7.30
2016,09,21,05,21,7.20
2016,09,21,05,22,7.20
2016,09,21,05,23,7.20
2016,09,21,05,24,7.20
2016,09,21,05,25,7.20
2016,09,21,05,26,7.20
2016,09,21,05,27,7.20
2016,09,21,05,28,7.20
2016,09,21,05,29,7.20
2016,09,21,05,30,7.20
2016,09,21,05,31,7.20
2016,09,21,05,32,7.20
2016,09,21,05,33,7.20
2016,09,21,05,34,7.20
2016,09,21,05,35,7.20
2016,09,21,05,36,7.10
2016,09,21,05,37,7.10
2016,09,21,05,38,7.10
2016,09,21,05,39,7.10
2016,09,21,05,40,7.10
2016,09,21,05,41,7.10
2016,09,21,05,42,7.10
2016,09,21,05,43,7.10
2016,09,21,05,44,7.10
2016,09,21,05,45,7.10
2016,09,21,05,46,7.10
2016,09,21,05,47,7.10
2016,09,21,05,48,7.10
2016,09,21,05,49,7.10
2016,09,21,05,50,7.10
2016,09,21,05,51,7.10
2016,09,21,05,52,7.10
2016,09,21,05,53,7.10
2016,09,21,05,54,7.10
2016,09,21,05,55,7.10
2016,09,21,05,56,7.10
2016,09,21,05,57,7.10
2016,09,21,05,58,7.00
2016,09,21,05,59,7.00
2016,09,21,06,00,7.00
2016,09,21,06,01,7.00
2016,09,21,06,02,7.00
2016,09,21,06,03,7.00
2016,09,21,06,04,7.00
2016,09,21,06,05,6.90
2016,09,21,06,06,6.90
2016,09,21,06,07,6.90
2016,09,21,06,08,6.90
2016,09,21,06,09,6.80
2016,09,21,06,10,6.80
2016,09,21,06,11,6.80
2016,09,21,06,12,6.80
2016,09,21,06,13,6.80
2016,09,21,06,14,6.80
2016,09,21,06,15,6.80
2016,09,21,06,16,6.80
2016,09,21,06,17,6.80
2016,09,21,06,18,6.80
2016,09,21,06,19,6.80
2016,09,21,06,20,6.80
2016,09,21,06,21,6.70
2016,09,21,06,22,6.70
2016,09,21,06,23,6.70
2016,09,21,06,24,6.70
2016,09,21,06,25,6.70
2016,09,21,06,26,6.70
2016,09,21,06,27,6.70
2016,09,21,06,28,6.70
2016,09,21,06,29,6.70
2016,09,21,06,30,6.70
2016,09,21,06,31,6.70
2016,09,21,06,32,6.60
2016,09,21,06,33,6.60
2016,09,21,06,34,6.60
2016,09,21,06,35,6.60
2016,09,21,06,36,6.60
2016,09,21,06,37,6.60
2016,09,21,06,38,6.60
2016,09,21,06,39,6.60
2016,09,21,06,40,6.60
2016,09,21,06,41,6.60
2016,09,21,06,42,6.60
2016,09,21,06,43,6.60
2016,09,21,06,44,6.50
2016,09,21,06,45,6.50
2016,09,21,06,46,6.50
2016,09,21,06,47,6.50
2016,09,21,06,48,6.50
2016,09,21,06,49,6.50
2016,09,21,06,50,6.50
2016,09,21,06,51,6.40
2016,09,21,06,52,6.40
2016,09,21,06,53,6.40
2016,09,21,06,54,6.40
2016,09,21,06,55,6.40
2016,09,21,06,56,6.40
2016,09,21,06,57,6.30
2016,09,21,06,58,6.30
2016,09,21,06,59,6.30
2016,09,21,07,00,6.30
2016,09,21,07,01,6.30
2016,09,21,07,02,6.30
2016,09,21,07,03,6.30
2016,09,21,07,04,6.30
2016,09,21,07,05,6.30
2016,09,21,07,06,6.30
2016,09,21,07,07,6.40
2016,09,21,07,08,6.30
2016,09,21,07,09,6.30
2016,09,21,07,10,6.30
2016,09,21,07,11,6.30
2016,09,21,07,12,6.30
2016,09,21,07,13,6.40
2016,09,21,07,14,6.40
2016,09,21,07,15,6.30
2016,09,21,07,16,6.30
2016,09,21,07,17,6.30
2016,09,21,07,18,6.30
2016,09,21,07,19,6.30
2016,09,21,07,20,6.30
2016,09,21,07,21,6.30
2016,09,21,07,22,6.40
2016,09,21,07,23,6.40
2016,09,21,07,24,6.40
2016,09,21,07,25,6.40
2016,09,21,07,26,6.40
2016,09,21,07,27,6.40
2016,09,21,07,28,6.40
2016,09,21,07,29,6.40
2016,09,21,07,30,6.40
2016,09,21,07,31,6.40
2016,09,21,07,32,6.40
2016,09,21,07,33,6.40
2016,09,21,07,34,6.40
2016,09,21,07,35,6.40
2016,09,21,07,36,6.40
2016,09,21,07,37,6.50
2016,09,21,07,38,6.50
2016,09,21,07,39,6.50
2016,09,21,07,40,6.60
2016,09,21,07,41,6.60
2016,09,21,07,42,6.60
2016,09,21,07,43,6.60
2016,09,21,07,44,6.70
2016,09,21,07,45,6.70
2016,09,21,07,46,6.70
2016,09,21,07,47,6.70
2016,09,21,07,48,6.70
2016,09,21,07,49,6.80
2016,09,21,07,50,6.80
2016,09,21,07,51,6.80
2016,09,21,07,52,6.80
2016,09,21,07,53,6.90
2016,09,21,07,54,6.90
2016,09,21,07,55,6.90
2016,09,21,07,56,7.00
2016,09,21,07,57,7.00
2016,09,21,07,58,7.10
2016,09,21,07,59,7.10
2016,09,21,08,00,7.10
2016,09,21,08,01,7.20
2016,09,21,08,02,7.20
2016,09,21,08,03,7.20
2016,09,21,08,04,7.30
2016,09,21,08,05,7.30
2016,09,21,08,06,7.30
2016,09,21,08,07,7.30
2016,09,21,08,08,7.40
2016,09,21,08,09,7.40
2016,09,21,08,10,7.50
2016,09,21,08,11,7.50
2016,09,21,08,12,7.50
2016,09,21,08,13,7.60
2016,09,21,08,14,7.60
2016,09,21,08,15,7.60
2016,09,21,08,16,7.70
2016,09,21,08,17,7.70
2016,09,21,08,18,7.80
2016,09,21,08,19,7.80
2016,09,21,08,20,7.90
2016,09,21,08,21,7.90
2016,09,21,08,22,7.90
2016,09,21,08,23,8.00
2016,09,21,08,24,8.00
2016,09,21,08,25,8.10
2016,09,21,08,26,8.10
2016,09,21,08,27,8.20
2016,09,21,08,28,8.20
2016,09,21,08,29,8.30
2016,09,21,08,30,8.30
2016,09,21,08,31,8.40
2016,09,21,08,32,8.40
2016,09,21,08,33,8.40
2016,09,21,08,34,8.50
2016,09,21,08,35,8.50
2016,09,21,08,36,8.60
2016,09,21,08,37,8.60
2016,09,21,08,38,8.70
2016,09,21,08,39,8.70
2016,09,21,08,40,8.70
2016,09,21,08,41,8.80
2016,09,21,08,42,8.80
2016,09,21,08,43,8.80
2016,09,21,08,44,8.90
2016,09,21,08,45,8.90
2016,09,21,08,46,9.00
2016,09,21,08,47,9.10
2016,09,21,08,48,9.10
2016,09,21,08,49,9.20
2016,09,21,08,50,9.20
2016,09,21,08,51,9.30
2016,09,21,08,52,9.30
2016,09,21,08,53,9.40
2016,09,21,08,54,9.40
2016,09,21,08,55,9.50
2016,09,21,08,56,9.50
2016,09,21,08,57,9.60
2016,09,21,08,58,9.60
2016,09,21,08,59,9.70
2016,09,21,09,00,9.80
2016,09,21,09,01,9.80
2016,09,21,09,02,9.80
2016,09,21,09,03,9.80
2016,09,21,09,04,9.90
2016,09,21,09,05,9.90
2016,09,21,09,06,9.90
2016,09,21,09,07,9.90
2016,09,21,09,08,9.90
2016,09,21,09,09,10.00
2016,09,21,09,10,10.00
2016,09,21,09,11,10.10
2016,09,21,09,12,10.10
2016,09,21,09,13,10.20
2016,09,21,09,14,10.20
2016,09,21,09,15,10.30
2016,09,21,09,16,10.30
2016,09,21,09,17,10.40
2016,09,21,09,18,10.40
2016,09,21,09,19,10.50
2016,09,21,09,20,10.50
2016,09,21,09,21,10.60
2016,09,21,09,22,10.70
2016,09,21,09,23,10.70
2016,09,21,09,24,10.70
2016,09,21,09,25,10.80
2016,09,21,09,26,10.80
2016,09,21,09,27,10.80
2016,09,21,09,28,10.80
2016,09,21,09,29,10.90
2016,09,21,09,30,10.90
2016,09,21,09,31,10.90
2016,09,21,09,32,10.90
2016,09,21,09,33,10.90
2016,09,21,09,34,11.00
2016,09,21,09,35,11.00
2016,09,21,09,36,11.00
2016,09,21,09,37,11.10
2016,09,21,09,38,11.10
2016,09,21,09,39,11.10
2016,09,21,09,40,11.20
2016,09,21,09,41,11.20
2016,09,21,09,42,11.20
2016,09,21,09,43,11.30
2016,09,21,09,44,11.30
2016,09,21,09,45,11.40
2016,09,21,09,46,11.40
2016,09,21,09,47,11.40
2016,09,21,09,48,11.50
2016,09,21,09,49,11.60
2016,09,21,09,50,11.60
2016,09,21,09,51,11.60
2016,09,21,09,52,11.70
2016,09,21,09,53,11.70
2016,09,21,09,54,11.70
2016,09,21,09,55,11.80
2016,09,21,09,56,11.80
2016,09,21,09,57,11.90
2016,09,21,09,58,11.90
2016,09,21,09,59,11.90
2016,09,21,10,00,12.00
2016,09,21,10,01,12.00
2016,09,21,10,02,12.10
2016,09,21,10,03,12.10
2016,09,21,10,04,12.10
2016,09,21,10,05,12.20
2016,09,21,10,06,12.20
2016,09,21,10,07,12.20
2016,09,21,10,08,12.30
2016,09,21,10,09,12.30
2016,09,21,10,10,12.40
2016,09,21,10,11,12.50
2016,09,21,10,12,12.50
2016,09,21,10,13,12.60
2016,09,21,10,14,12.70
2016,09,21,10,15,12.80
2016,09,21,10,16,12.90
2016,09,21,10,17,12.90
2016,09,21,10,18,13.10
2016,09,21,10,19,13.20
2016,09,21,10,20,13.20
2016,09,21,10,21,13.30
2016,09,21,10,22,13.30
2016,09,21,10,23,13.40
2016,09,21,10,24,13.40
2016,09,21,10,25,13.50
2016,09,21,10,26,13.60
2016,09,21,10,27,13.60
2016,09,21,10,28,13.60
2016,09,21,10,29,13.60
2016,09,21,10,30,13.60
2016,09,21,10,31,13.70
2016,09,21,10,32,13.70
2016,09,21,10,33,13.70
2016,09,21,10,34,13.80
2016,09,21,10,35,13.80
2016,09,21,10,36,13.80
2016,09,21,10,37,13.90
2016,09,21,10,38,13.90
2016,09,21,10,39,14.00
2016,09,21,10,40,14.00
2016,09,21,10,41,14.10
2016,09,21,10,42,14.10
2016,09,21,10,43,14.10
2016,09,21,10,44,14.10
2016,09,21,10,45,14.20
2016,09,21,10,46,14.20
2016,09,21,10,47,14.20
2016,09,21,10,48,14.20
2016,09,21,10,49,14.20
2016,09,21,10,50,14.20
2016,09,21,10,51,14.30
2016,09,21,10,52,14.30
2016,09,21,10,53,14.30
2016,09,21,10,54,14.40
2016,09,21,10,55,14.40
2016,09,21,10,56,14.50
2016,09,21,10,57,14.60
2016,09,21,10,58,14.70
2016,09,21,10,59,14.80
2016,09,21,11,00,14.90
2016,09,21,11,01,15.00
2016,09,21,11,02,15.00
2016,09,21,11,03,15.10
2016,09,21,11,04,15.20
2016,09,21,11,05,15.20
2016,09,21,11,06,15.30
2016,09,21,11,07,15.30
2016,09,21,11,08,15.30
2016,09,21,11,09,15.30
2016,09,21,11,10,15.30
2016,09,21,11,11,15.40
2016,09,21,11,12,15.30
2016,09,21,11,13,15.40
2016,09,21,11,14,15.40
2016,09,21,11,15,15.40
2016,09,21,11,16,15.40
2016,09,21,11,17,15.50
2016,09,21,11,18,15.50
2016,09,21,11,19,15.60
2016,09,21,11,20,15.60
2016,09,21,11,21,15.70
2016,09,21,11,22,15.70
2016,09,21,11,23,15.80
2016,09,21,11,24,15.80
2016,09,21,11,25,15.90
2016,09,21,11,26,16.00
2016,09,21,11,27,16.00
2016,09,21,11,28,16.00
2016,09,21,11,29,16.00
2016,09,21,11,30,16.10
2016,09,21,11,31,16.10
2016,09,21,11,32,16.10
2016,09,21,11,33,16.20
2016,09,21,11,34,16.20
2016,09,21,11,35,16.20
2016,09,21,11,36,16.20
2016,09,21,11,37,16.20
2016,09,21,11,38,16.20
2016,09,21,11,39,16.20
2016,09,21,11,40,16.30
2016,09,21,11,41,16.30
2016,09,21,11,42,16.30
2016,09,21,11,43,16.40
2016,09,21,11,44,16.40
2016,09,21,11,45,16.40
2016,09,21,11,46,16.50
2016,09,21,11,47,16.50
2016,09,21,11,48,16.50
2016,09,21,11,49,16.50
2016,09,21,11,50,16.50
2016,09,21,11,51,16.60
2016,09,21,11,52,16.60
2016,09,21,11,53,16.60
2016,09,21,11,54,16.60
2016,09,21,11,55,16.70
2016,09,21,11,56,16.70
2016,09,21,11,57,16.80
2016,09,21,11,58,16.90
2016,09,21,11,59,16.90
2016,09,21,12,00,17.00
2016,09,21,12,01,17.10
2016,09,21,12,02,17.10
2016,09,21,12,03,17.10
2016,09,21,12,04,17.20
2016,09,21,12,05,17.30
2016,09,21,12,06,17.30
2016,09,21,12,07,17.40
2016,09,21,12,08,17.50
2016,09,21,12,09,17.50
2016,09,21,12,10,17.60
2016,09,21,12,11,17.60
2016,09,21,12,12,17.70
2016,09,21,12,13,17.70
2016,09,21,12,14,17.80
2016,09,21,12,15,17.80
2016,09,21,12,16,17.90
2016,09,21,12,17,17.90
2016,09,21,12,18,18.00
2016,09,21,12,19,18.00
2016,09,21,12,20,18.00
2016,09,21,12,21,18.10
2016,09,21,12,22,18.10
2016,09,21,12,23,18.20
2016,09,21,12,24,18.20
2016,09,21,12,25,18.30
2016,09,21,12,26,18.30
2016,09,21,12,27,18.20
2016,09,21,12,28,18.30
2016,09,21,12,29,18.30
2016,09,21,12,30,18.30
2016,09,21,12,31,18.30
2016,09,21,12,32,18.30
2016,09,21,12,33,18.30
2016,09,21,12,34,18.30
2016,09,21,12,35,18.30
2016,09,21,12,36,18.30
2016,09,21,12,37,18.30
2016,09,21,12,38,18.30
2016,09,21,12,39,18.30
2016,09,21,12,40,18.20
2016,09,21,12,41,18.30
2016,09,21,12,42,18.30
2016,09,21,12,43,18.30
2016,09,21,12,44,18.30
2016,09,21,12,45,18.40
2016,09,21,12,46,18.50
2016,09,21,12,47,18.50
2016,09,21,12,48,18.60
2016,09,21,12,49,18.60
2016,09,21,12,50,18.60
2016,09,21,12,51,18.60
2016,09,21,12,52,18.60
2016,09,21,12,53,18.60
2016,09,21,12,54,18.60
2016,09,21,12,55,18.60
2016,09,21,12,56,18.60
2016,09,21,12,57,18.60
2016,09,21,12,58,18.60
2016,09,21,12,59,18.50
2016,09,21,13,00,18.50
2016,09,21,13,01,18.50
2016,09,21,13,02,18.50
2016,09,21,13,03,18.50
2016,09,21,13,04,18.50
2016,09,21,13,05,18.60
2016,09,21,13,06,18.60
2016,09,21,13,07,18.60
2016,09,21,13,08,18.70
2016,09,21,13,09,18.70
2016,09,21,13,10,18.80
2016,09,21,13,11,18.80
2016,09,21,13,12,18.80
2016,09,21,13,13,18.90
2016,09,21,13,14,18.90
2016,09,21,13,15,18.90
2016,09,21,13,16,18.90
2016,09,21,13,17,19.00
2016,09,21,13,18,18.90
2016,09,21,13,19,18.90
2016,09,21,13,20,18.90
2016,09,21,13,21,19.00
2016,09,21,13,22,19.10
2016,09,21,13,23,19.10
2016,09,21,13,24,19.10
2016,09,21,13,25,19.10
2016,09,21,13,26,19.10
2016,09,21,13,27,19.10
2016,09,21,13,28,19.20
2016,09,21,13,29,19.20
2016,09,21,13,30,19.20
2016,09,21,13,31,19.20
2016,09,21,13,32,19.20
2016,09,21,13,33,19.20
2016,09,21,13,34,19.20
2016,09,21,13,35,19.20
2016,09,21,13,36,19.20
2016,09,21,13,37,19.20
2016,09,21,13,38,19.20
2016,09,21,13,39,19.30
2016,09,21,13,40,19.40
2016,09,21,13,41,19.40
2016,09,21,13,42,19.50
2016,09,21,13,43,19.60
2016,09,21,13,44,19.60
2016,09,21,13,45,19.60
2016,09,21,13,46,19.70
2016,09,21,13,47,19.70
2016,09,21,13,48,19.80
2016,09,21,13,49,19.80
2016,09,21,13,50,19.80
2016,09,21,13,51,19.80
2016,09,21,13,52,19.90
2016,09,21,13,53,19.90
2016,09,21,13,54,19.90
2016,09,21,13,55,19.90
2016,09,21,13,56,20.00
2016,09,21,13,57,20.00
2016,09,21,13,58,20.10
2016,09,21,13,59,20.10
2016,09,21,14,00,20.10
2016,09,21,14,01,20.10
2016,09,21,14,02,20.20
2016,09,21,14,03,20.20
2016,09,21,14,04,20.20
2016,09,21,14,05,20.30
2016,09,21,14,06,20.30
2016,09,21,14,07,20.30
2016,09,21,14,08,20.40
2016,09,21,14,09,20.40
2016,09,21,14,10,20.40
2016,09,21,14,11,20.40
2016,09,21,14,12,20.40
2016,09,21,14,13,20.50
2016,09,21,14,14,20.60
2016,09,21,14,15,20.60
2016,09,21,14,16,20.60
2016,09,21,14,17,20.60
2016,09,21,14,18,20.70
2016,09,21,14,19,20.60
2016,09,21,14,20,20.60
2016,09,21,14,21,20.60
2016,09,21,14,22,20.60
2016,09,21,14,23,20.60
2016,09,21,14,24,20.60
2016,09,21,14,25,20.60
2016,09,21,14,26,20.70
2016,09,21,14,27,20.70
2016,09,21,14,28,20.70
2016,09,21,14,29,20.80
2016,09,21,14,30,20.80
2016,09,21,14,31,20.80
2016,09,21,14,32,20.80
2016,09,21,14,33,20.90
2016,09,21,14,34,20.90
2016,09,21,14,35,20.90
2016,09,21,14,36,20.90
2016,09,21,14,37,20.90
2016,09,21,14,38,20.90
2016,09,21,14,39,20.80
2016,09,21,14,40,20.80
2016,09,21,14,41,20.90
2016,09,21,14,42,20.90
2016,09,21,14,43,20.90
2016,09,21,14,44,21.00
2016,09,21,14,45,21.10
2016,09,21,14,46,21.10
2016,09,21,14,47,21.10
2016,09,21,14,48,21.00
2016,09,21,14,49,21.00
2016,09,21,14,50,21.10
2016,09,21,14,51,21.10
2016,09,21,14,52,21.10
2016,09,21,14,53,21.00
2016,09,21,14,54,21.00
2016,09,21,14,55,21.00
2016,09,21,14,56,21.00
2016,09,21,14,57,20.90
2016,09,21,14,58,20.90
2016,09,21,14,59,20.90
2016,09,21,15,00,20.90
2016,09,21,15,01,20.90
2016,09,21,15,02,21.00
2016,09,21,15,03,21.00
2016,09,21,15,04,21.10
2016,09,21,15,05,21.10
2016,09,21,15,06,21.10
2016,09,21,15,07,21.10
2016,09,21,15,08,21.10
2016,09,21,15,09,21.10
2016,09,21,15,10,21.10
2016,09,21,15,11,21.20
2016,09,21,15,12,21.20
2016,09,21,15,13,21.20
2016,09,21,15,14,21.30
2016,09,21,15,15,21.30
2016,09,21,15,16,21.30
2016,09,21,15,17,21.30
2016,09,21,15,18,21.30
2016,09,21,15,19,21.40
2016,09,21,15,20,21.40
2016,09,21,15,21,21.50
2016,09,21,15,22,21.50
2016,09,21,15,23,21.50
2016,09,21,15,24,21.50
2016,09,21,15,25,21.50
2016,09,21,15,26,21.50
2016,09,21,15,27,21.50
2016,09,21,15,28,21.40
2016,09,21,15,29,21.40
2016,09,21,15,30,21.40
2016,09,21,15,31,21.40
2016,09,21,15,32,21.40
2016,09,21,15,33,21.40
2016,09,21,15,34,21.40
2016,09,21,15,35,21.40
2016,09,21,15,36,21.40
2016,09,21,15,37,21.50
2016,09,21,15,38,21.50
2016,09,21,15,39,21.50
2016,09,21,15,40,21.50
2016,09,21,15,41,21.50
2016,09,21,15,42,21.50
2016,09,21,15,43,21.60
2016,09,21,15,44,21.60
2016,09,21,15,45,21.60
2016,09,21,15,46,21.70
2016,09,21,15,47,21.70
2016,09,21,15,48,21.70
2016,09,21,15,49,21.70
2016,09,21,15,50,21.70
2016,09,21,15,51,21.70
2016,09,21,15,52,21.70
2016,09,21,15,53,21.70
2016,09,21,15,54,21.60
2016,09,21,15,55,21.60
2016,09,21,15,56,21.70
2016,09,21,15,57,21.70
2016,09,21,15,58,21.70
2016,09,21,15,59,21.70
2016,09,21,16,00,21.70
2016,09,21,16,01,21.70
2016,09,21,16,02,21.70
2016,09,21,16,03,21.70
2016,09,21,16,04,21.70
2016,09,21,16,05,21.70
2016,09,21,16,06,21.80
2016,09,21,16,07,21.80
2016,09,21,16,08,21.80
2016,09,21,16,09,21.80
2016,09,21,16,10,21.80
2016,09,21,16,11,21.80
2016,09,21,16,12,21.90
2016,09,21,16,13,21.90
2016,09,21,16,14,21.90
2016,09,21,16,15,21.90
2016,09,21,16,16,21.90
2016,09,21,16,17,21.90
2016,09,21,16,18,21.90
2016,09,21,16,19,21.80
2016,09,21,16,20,21.80
2016,09,21,16,21,21.80
2016,09,21,16,22,21.80
2016,09,21,16,23,21.80
2016,09,21,16,24,21.80
2016,09,21,16,25,21.80
2016,09,21,16,26,21.80
2016,09,21,16,27,21.80
2016,09,21,16,28,21.80
2016,09,21,16,29,21.80
2016,09,21,16,30,21.90
2016,09,21,16,31,21.90
2016,09,21,16,32,21.80
2016,09,21,16,33,21.90
2016,09,21,16,34,21.90
2016,09,21,16,35,21.90
2016,09,21,16,36,21.90
2016,09,21,16,37,21.90
2016,09,21,16,38,21.90
2016,09,21,16,39,21.90
2016,09,21,16,40,21.80
2016,09,21,16,41,21.80
2016,09,21,16,42,21.80
2016,09,21,16,43,21.80
2016,09,21,16,44,21.80
2016,09,21,16,45,21.70
2016,09,21,16,46,21.70
2016,09,21,16,47,21.70
2016,09,21,16,48,21.70
2016,09,21,16,49,21.70
2016,09,21,16,50,21.70
2016,09,21,16,51,21.70
2016,09,21,16,52,21.80
2016,09,21,16,53,21.80
2016,09,21,16,54,21.80
2016,09,21,16,55,21.80
2016,09,21,16,56,21.80
2016,09,21,16,57,21.80
2016,09,21,16,58,21.70
2016,09,21,16,59,21.70
2016,09,21,17,00,21.70
2016,09,21,17,01,21.60
2016,09,21,17,02,21.50
2016,09,21,17,03,21.50
2016,09,21,17,04,21.40
2016,09,21,17,05,21.40
2016,09,21,17,06,21.30
2016,09,21,17,07,21.30
2016,09,21,17,08,21.10
2016,09,21,17,09,21.10
2016,09,21,17,10,21.00
2016,09,21,17,11,20.90
2016,09,21,17,12,20.80
2016,09,21,17,13,20.80
2016,09,21,17,14,20.70
2016,09,21,17,15,20.70
2016,09,21,17,16,20.70
2016,09,21,17,17,20.60
2016,09,21,17,18,20.60
2016,09,21,17,19,20.60
2016,09,21,17,20,20.60
2016,09,21,17,21,20.60
2016,09,21,17,22,20.60
2016,09,21,17,23,20.70
2016,09,21,17,24,20.70
2016,09,21,17,25,20.70
2016,09,21,17,26,20.80
2016,09,21,17,27,20.80
2016,09,21,17,28,20.90
2016,09,21,17,29,20.90
2016,09,21,17,30,20.90
2016,09,21,17,31,21.00
2016,09,21,17,32,21.00
2016,09,21,17,33,21.00
2016,09,21,17,34,21.10
2016,09,21,17,35,21.10
2016,09,21,17,36,21.00
2016,09,21,17,37,21.00
2016,09,21,17,38,21.00